| time (UTC) | temp C | wind direction | speed KPH | gust KPH | rain 1hr cm | rain 24hr cm | rain mn cm | humidity % | barometer mb |
| 20260505152928 | 27 | 157 | 3.2 | 4.8 | 0.00 | 0.00 | 0.00 | 83 | 1011.1 |
| 20260505152425 | 27 | 120 | 4.8 | 8.0 | 0.00 | 0.00 | 0.00 | 81 | 1011.0 |
| 20260505151925 | 27 | 150 | 4.8 | 8.0 | 0.00 | 0.00 | 0.00 | 81 | 1010.7 |
| 20260505151421 | 27 | 233 | 4.8 | 11.3 | 0.00 | 0.00 | 0.00 | 82 | 1010.8 |
| 20260505150919 | 27 | 171 | 4.8 | 9.7 | 0.00 | 0.00 | 0.00 | 82 | 1010.9 |
| 20260505150416 | 27 | 129 | 4.8 | 9.7 | 0.00 | 0.00 | 0.00 | 83 | 1010.9 |
| 20260505140346 | 25 | 108 | 1.6 | 1.6 | 0.00 | 0.00 | 0.00 | 90 | 1010.8 |
| 20260505130309 | 24 | 143 | 3.2 | 3.2 | 0.00 | 0.00 | 0.00 | 91 | 1010.4 |
| 20260505124800 | 23 | 168 | 3.2 | 3.2 | 0.00 | 0.00 | 0.00 | 92 | 1010.3 |
| 20260505124256 | 23 | 146 | 1.6 | 3.2 | 0.00 | 0.00 | 0.00 | 92 | 1010.4 |
| 20260505123752 | 23 | 164 | 3.2 | 4.8 | 0.00 | 0.00 | 0.00 | 92 | 1010.3 |
| 20260505123249 | 23 | 163 | 4.8 | 4.8 | 0.00 | 0.00 | 0.00 | 92 | 1010.3 |
| 20260505122745 | 23 | 100 | 11.3 | 12.9 | 0.00 | 0.00 | 0.00 | 92 | 1010.4 |
| 20260505122243 | 23 | 143 | 3.2 | 3.2 | 0.00 | 0.00 | 0.00 | 92 | 1010.4 |
| 20260505121739 | 23 | 135 | 8.0 | 12.9 | 0.00 | 0.00 | 0.00 | 92 | 1010.5 |
| 20260505121236 | 23 | 147 | 0.0 | 1.6 | 0.00 | 0.00 | 0.00 | 92 | 1010.5 |
| 20260505120732 | 23 | 157 | 3.2 | 3.2 | 0.00 | 0.00 | 0.00 | 93 | 1010.4 |
| 20260505120228 | 23 | 188 | 4.8 | 8.0 | 0.00 | 0.00 | 0.00 | 93 | 1010.3 |
| 20260505115727 | 23 | 140 | 3.2 | 4.8 | 0.00 | 0.00 | 0.00 | 93 | 1010.1 |
| 20260505115225 | 23 | 151 | 0.0 | 1.6 | 0.00 | 0.00 | 0.00 | 93 | 1010.1 |
| 20260505114722 | 23 | 162 | 6.4 | 8.0 | 0.00 | 0.00 | 0.00 | 93 | 1010.2 |
| 20260505114218 | 23 | 158 | 1.6 | 3.2 | 0.00 | 0.00 | 0.00 | 93 | 1010.2 |
| 20260505113715 | 23 | 167 | 0.0 | 1.6 | 0.00 | 0.00 | 0.00 | 93 | 1010.2 |
| 20260505113212 | 23 | 150 | 0.0 | 1.6 | 0.00 | 0.00 | 0.00 | 93 | 1010.5 |
| 20260505112708 | 23 | 146 | 3.2 | 4.8 | 0.00 | 0.00 | 0.00 | 93 | 1010.6 |
| 20260505112206 | 23 | 200 | 1.6 | 3.2 | 0.00 | 0.00 | 0.00 | 93 | 1010.6 |
| 20260505111705 | 23 | 135 | 0.0 | 1.6 | 0.00 | 0.00 | 0.00 | 93 | 1010.4 |
| 20260505111201 | 23 | 172 | 1.6 | 3.2 | 0.00 | 0.00 | 0.00 | 93 | 1010.5 |
| 20260505110657 | 23 | 180 | 0.0 | 1.6 | 0.00 | 0.00 | 0.00 | 93 | 1010.3 |
| 20260505110155 | 23 | 167 | 1.6 | 1.6 | 0.00 | 0.00 | 0.00 | 93 | 1010.2 |
| 20260505102131 | 23 | 154 | 3.2 | 3.2 | 0.00 | 0.00 | 0.00 | 93 | 1010.3 |
| 20260505101629 | 22 | 151 | 1.6 | 3.2 | 0.00 | 0.00 | 0.00 | 93 | 1010.1 |
| 20260505101125 | 22 | 153 | 1.6 | 3.2 | 0.00 | 0.00 | 0.00 | 93 | 1010.2 |
| 20260505100621 | 22 | 161 | 1.6 | 3.2 | 0.00 | 0.00 | 0.00 | 93 | 1010.2 |
| 20260505100118 | 22 | 128 | 3.2 | 4.8 | 0.00 | 0.00 | 0.00 | 93 | 1010.2 |
| 20260505095614 | 22 | 168 | 8.0 | 9.7 | 0.00 | 0.00 | 0.00 | 93 | 1010.4 |
| 20260505095111 | 22 | 150 | 1.6 | 1.6 | 0.00 | 0.00 | 0.00 | 92 | 1010.4 |
| 20260505094608 | 22 | 153 | 3.2 | 4.8 | 0.00 | 0.00 | 0.00 | 92 | 1010.5 |
| 20260505094104 | 22 | 153 | 1.6 | 1.6 | 0.00 | 0.00 | 0.00 | 92 | 1010.5 |
| 20260505093600 | 22 | 194 | 1.6 | 1.6 | 0.00 | 0.00 | 0.00 | 92 | 1010.3 |
| 20260505093058 | 22 | 181 | 1.6 | 3.2 | 0.00 | 0.00 | 0.00 | 92 | 1010.5 |
| 20260505092555 | 22 | 198 | 1.6 | 1.6 | 0.00 | 0.00 | 0.00 | 92 | 1010.3 |
| 20260505092054 | 22 | 149 | 1.6 | 3.2 | 0.00 | 0.00 | 0.00 | 92 | 1010.4 |
| 20260505091550 | 22 | 158 | 1.6 | 1.6 | 0.00 | 0.00 | 0.00 | 92 | 1010.5 |
| 20260505091048 | 22 | 152 | 1.6 | 4.8 | 0.00 | 0.00 | 0.00 | 92 | 1010.4 |
| 20260505090546 | 22 | 151 | 1.6 | 3.2 | 0.00 | 0.00 | 0.00 | 92 | 1010.5 |
| 20260505090043 | 22 | 151 | 0.0 | 1.6 | 0.00 | 0.00 | 0.00 | 92 | 1010.5 |
| 20260505085541 | 22 | 177 | 3.2 | 4.8 | 0.00 | 0.00 | 0.00 | 92 | 1010.3 |
| 20260505085039 | 22 | 158 | 1.6 | 4.8 | 0.00 | 0.00 | 0.00 | 92 | 1010.3 |
| 20260505084537 | 22 | 145 | 1.6 | 1.6 | 0.00 | 0.00 | 0.00 | 92 | 1010.1 |
| 20260505084035 | 22 | 261 | 1.6 | 8.0 | 0.00 | 0.00 | 0.00 | 91 | 1010.3 |
| 20260505083531 | 22 | 160 | 3.2 | 3.2 | 0.00 | 0.00 | 0.00 | 91 | 1010.3 |
| 20260505083028 | 22 | 145 | 3.2 | 4.8 | 0.00 | 0.00 | 0.00 | 91 | 1010.5 |
| 20260505082524 | 23 | 148 | 1.6 | 1.6 | 0.00 | 0.00 | 0.00 | 91 | 1010.5 |
| 20260505082021 | 23 | 124 | 1.6 | 1.6 | 0.00 | 0.00 | 0.00 | 90 | 1010.6 |
| 20260505081518 | 23 | 161 | 4.8 | 8.0 | 0.00 | 0.00 | 0.00 | 90 | 1010.6 |
| 20260505081014 | 23 | 168 | 3.2 | 3.2 | 0.00 | 0.00 | 0.00 | 90 | 1010.8 |
| 20260505080511 | 23 | 157 | 1.6 | 1.6 | 0.00 | 0.00 | 0.00 | 90 | 1010.6 |
| 20260505080007 | 23 | 176 | 1.6 | 3.2 | 0.00 | 0.00 | 0.00 | 90 | 1010.7 |
| 20260505075503 | 23 | 136 | 1.6 | 1.6 | 0.00 | 0.00 | 0.00 | 89 | 1010.9 |
| 20260505075000 | 23 | 154 | 1.6 | 3.2 | 0.00 | 0.00 | 0.00 | 89 | 1010.8 |
| 20260505074458 | 23 | 144 | 4.8 | 8.0 | 0.00 | 0.00 | 0.00 | 89 | 1010.7 |
| 20260505073955 | 23 | 147 | 1.6 | 3.2 | 0.00 | 0.00 | 0.00 | 89 | 1010.9 |
| 20260505073452 | 22 | 148 | 3.2 | 3.2 | 0.00 | 0.00 | 0.00 | 89 | 1010.9 |
| 20260505072949 | 22 | 167 | 3.2 | 3.2 | 0.00 | 0.00 | 0.00 | 89 | 1010.8 |
| 20260505072445 | 22 | 156 | 1.6 | 3.2 | 0.00 | 0.00 | 0.00 | 89 | 1010.9 |
| 20260505071942 | 22 | 137 | 1.6 | 3.2 | 0.00 | 0.00 | 0.00 | 88 | 1010.9 |
| 20260505071437 | 22 | 156 | 1.6 | 1.6 | 0.00 | 0.00 | 0.00 | 88 | 1011.2 |
| 20260505070936 | 23 | 134 | 3.2 | 3.2 | 0.00 | 0.00 | 0.00 | 88 | 1011.1 |
| 20260505070432 | 23 | 135 | 4.8 | 8.0 | 0.00 | 0.00 | 0.00 | 88 | 1011.3 |
| 20260505065928 | 23 | 186 | 3.2 | 3.2 | 0.00 | 0.00 | 0.00 | 88 | 1011.4 |
| 20260505065425 | 23 | 161 | 3.2 | 3.2 | 0.00 | 0.00 | 0.00 | 88 | 1011.6 |
| 20260505064921 | 23 | 148 | 1.6 | 3.2 | 0.00 | 0.00 | 0.00 | 88 | 1011.6 |
| 20260505064419 | 22 | 172 | 1.6 | 3.2 | 0.00 | 0.00 | 0.00 | 88 | 1011.5 |
| 20260505063917 | 22 | 144 | 3.2 | 4.8 | 0.00 | 0.00 | 0.00 | 88 | 1011.6 |
| 20260505063413 | 22 | 157 | 1.6 | 1.6 | 0.00 | 0.00 | 0.00 | 88 | 1011.8 |
| 20260505062909 | 22 | 154 | 0.0 | 0.0 | 0.00 | 0.00 | 0.00 | 88 | 1011.8 |
| 20260505062407 | 22 | 162 | 1.6 | 3.2 | 0.00 | 0.00 | 0.00 | 88 | 1011.8 |
| 20260505061903 | 22 | 161 | 4.8 | 4.8 | 0.00 | 0.00 | 0.00 | 88 | 1011.9 |
| 20260505061402 | 22 | 148 | 3.2 | 4.8 | 0.00 | 0.00 | 0.00 | 88 | 1011.9 |
| 20260505060859 | 22 | 161 | 3.2 | 3.2 | 0.00 | 0.00 | 0.00 | 89 | 1011.9 |
| 20260505060355 | 22 | 150 | 0.0 | 1.6 | 0.00 | 0.00 | 0.00 | 89 | 1012.0 |
| 20260505055852 | 22 | 153 | 4.8 | 4.8 | 0.00 | 0.00 | 0.00 | 89 | 1011.9 |
| 20260505055348 | 22 | 140 | 4.8 | 4.8 | 0.00 | 0.00 | 0.00 | 89 | 1012.0 |
| 20260505054845 | 22 | 163 | 1.6 | 1.6 | 0.00 | 0.00 | 0.00 | 89 | 1012.1 |
| 20260505054343 | 22 | 172 | 3.2 | 3.2 | 0.00 | 0.00 | 0.00 | 89 | 1011.9 |
| 20260505053841 | 22 | 184 | 3.2 | 4.8 | 0.00 | 0.00 | 0.00 | 89 | 1011.9 |
| 20260505053337 | 22 | 147 | 0.0 | 0.0 | 0.00 | 0.00 | 0.00 | 88 | 1012.0 |
| 20260505052834 | 22 | 144 | 3.2 | 4.8 | 0.00 | 0.00 | 0.00 | 88 | 1012.1 |
| 20260505052331 | 22 | 117 | 8.0 | 9.7 | 0.00 | 0.00 | 0.00 | 88 | 1012.1 |
| 20260505051828 | 22 | 154 | 1.6 | 3.2 | 0.00 | 0.00 | 0.00 | 88 | 1012.1 |
| 20260505051325 | 22 | 163 | 4.8 | 8.0 | 0.00 | 0.00 | 0.00 | 88 | 1012.0 |
| 20260505050823 | 22 | 152 | 1.6 | 3.2 | 0.00 | 0.00 | 0.00 | 88 | 1012.1 |
| 20260505050322 | 22 | 146 | 0.0 | 1.6 | 0.00 | 0.00 | 0.00 | 88 | 1012.3 |
| 20260505041752 | 22 | 145 | 3.2 | 3.2 | 0.00 | 0.00 | 0.00 | 87 | 1012.4 |
| 20260505041248 | 22 | 147 | 1.6 | 1.6 | 0.00 | 0.00 | 0.00 | 87 | 1012.5 |
| 20260505040746 | 22 | 148 | 1.6 | 1.6 | 0.00 | 0.00 | 0.00 | 87 | 1012.5 |
| 20260505040243 | 22 | 166 | 1.6 | 1.6 | 0.00 | 0.00 | 0.00 | 87 | 1012.5 |
| 20260505035740 | 21 | 138 | 1.6 | 1.6 | 0.00 | 0.00 | 0.00 | 87 | 1012.6 |
| 20260505035236 | 22 | 133 | 3.2 | 3.2 | 0.00 | 0.00 | 0.00 | 87 | 1012.7 |
| 20260505034733 | 22 | 171 | 1.6 | 3.2 | 0.00 | 0.00 | 0.00 | 87 | 1012.9 |
| 20260505034230 | 22 | 154 | 3.2 | 3.2 | 0.00 | 0.00 | 0.00 | 87 | 1012.7 |
| 20260505033727 | 21 | 163 | 3.2 | 3.2 | 0.00 | 0.00 | 0.00 | 87 | 1012.8 |
| 20260505033225 | 21 | 142 | 1.6 | 3.2 | 0.00 | 0.00 | 0.00 | 87 | 1012.6 |
| 20260505032722 | 21 | 156 | 3.2 | 4.8 | 0.00 | 0.00 | 0.00 | 87 | 1012.6 |
| 20260505032218 | 21 | 122 | 3.2 | 3.2 | 0.00 | 0.00 | 0.00 | 87 | 1012.6 |
| 20260505031716 | 21 | 166 | 1.6 | 1.6 | 0.00 | 0.00 | 0.00 | 87 | 1012.8 |
| 20260505031212 | 21 | 149 | 1.6 | 3.2 | 0.00 | 0.00 | 0.00 | 87 | 1012.8 |
| 20260505030709 | 21 | 155 | 1.6 | 1.6 | 0.00 | 0.00 | 0.00 | 86 | 1012.8 |
| 20260505030204 | 21 | 140 | 0.0 | 1.6 | 0.00 | 0.00 | 0.00 | 86 | 1012.7 |
| 20260505025700 | 21 | 121 | 1.6 | 1.6 | 0.00 | 0.00 | 0.00 | 86 | 1012.7 |
| 20260505025159 | 21 | 134 | 0.0 | 1.6 | 0.00 | 0.00 | 0.00 | 85 | 1012.7 |
| 20260505024657 | 21 | 138 | 3.2 | 3.2 | 0.00 | 0.00 | 0.00 | 85 | 1012.9 |
| 20260505024153 | 21 | 162 | 3.2 | 4.8 | 0.00 | 0.00 | 0.00 | 85 | 1012.7 |
| 20260505023651 | 21 | 145 | 1.6 | 1.6 | 0.00 | 0.00 | 0.00 | 85 | 1012.6 |
| 20260505023148 | 21 | 147 | 0.0 | 0.0 | 0.00 | 0.00 | 0.00 | 84 | 1012.7 |
| 20260505022645 | 22 | 153 | 0.0 | 0.0 | 0.00 | 0.00 | 0.00 | 84 | 1012.7 |
| 20260505022142 | 22 | 134 | 3.2 | 4.8 | 0.00 | 0.00 | 0.00 | 84 | 1012.6 |
| 20260505021639 | 22 | 161 | 0.0 | 0.0 | 0.00 | 0.00 | 0.00 | 83 | 1012.7 |
| 20260505021136 | 22 | 149 | 4.8 | 8.0 | 0.00 | 0.00 | 0.00 | 83 | 1012.7 |
| 20260505020631 | 22 | 144 | 1.6 | 1.6 | 0.00 | 0.00 | 0.00 | 83 | 1012.7 |
| 20260505020128 | 22 | 169 | 4.8 | 4.8 | 0.00 | 0.00 | 0.00 | 83 | 1012.5 |
| 20260505015625 | 22 | 154 | 3.2 | 4.8 | 0.00 | 0.00 | 0.00 | 83 | 1012.4 |
| 20260505015121 | 22 | 158 | 1.6 | 1.6 | 0.00 | 0.00 | 0.00 | 82 | 1012.6 |
| 20260505014618 | 22 | 157 | 1.6 | 3.2 | 0.00 | 0.00 | 0.00 | 82 | 1012.4 |
| 20260505014115 | 22 | 148 | 1.6 | 3.2 | 0.00 | 0.00 | 0.00 | 82 | 1012.5 |
| 20260505013613 | 22 | 151 | 1.6 | 1.6 | 0.00 | 0.00 | 0.00 | 82 | 1012.3 |
| 20260505013110 | 22 | 153 | 1.6 | 3.2 | 0.00 | 0.00 | 0.00 | 81 | 1012.8 |
| 20260505012608 | 22 | 155 | 1.6 | 3.2 | 0.00 | 0.00 | 0.00 | 81 | 1012.6 |
| 20260505012105 | 22 | 150 | 1.6 | 1.6 | 0.00 | 0.00 | 0.00 | 81 | 1012.4 |
| 20260505011600 | 22 | 159 | 1.6 | 3.2 | 0.00 | 0.00 | 0.00 | 80 | 1012.3 |
| 20260505011058 | 22 | 146 | 3.2 | 4.8 | 0.00 | 0.00 | 0.00 | 80 | 1012.4 |
| 20260505010558 | 22 | 165 | 1.6 | 1.6 | 0.00 | 0.00 | 0.00 | 80 | 1012.4 |
| 20260505010055 | 22 | 158 | 1.6 | 1.6 | 0.00 | 0.00 | 0.00 | 79 | 1012.4 |
| 20260505005552 | 22 | 132 | 1.6 | 1.6 | 0.00 | 0.00 | 0.00 | 79 | 1012.5 |
| 20260505005049 | 22 | 142 | 1.6 | 1.6 | 0.00 | 0.00 | 0.00 | 79 | 1012.3 |
| 20260505004546 | 23 | 140 | 3.2 | 4.8 | 0.00 | 0.00 | 0.00 | 79 | 1012.3 |
| 20260505004043 | 23 | 164 | 0.0 | 1.6 | 0.00 | 0.00 | 0.00 | 78 | 1012.2 |
| 20260505003540 | 23 | 151 | 3.2 | 4.8 | 0.00 | 0.00 | 0.00 | 78 | 1012.0 |
| 20260505003037 | 23 | 150 | 3.2 | 3.2 | 0.00 | 0.00 | 0.00 | 77 | 1012.3 |
| 20260505002537 | 23 | 85 | 4.8 | 4.8 | 0.00 | 0.00 | 0.00 | 76 | 1012.2 |
| 20260505002037 | 23 | 169 | 4.8 | 8.0 | 0.00 | 0.00 | 0.00 | 76 | 1012.4 |
| 20260505001534 | 23 | 151 | 3.2 | 4.8 | 0.00 | 0.00 | 0.00 | 75 | 1012.4 |
| 20260505001031 | 24 | 146 | 3.2 | 4.8 | 0.00 | 0.00 | 0.00 | 74 | 1012.6 |
| 20260505000528 | 25 | 153 | 1.6 | 1.6 | 0.00 | 0.00 | 0.00 | 73 | 1012.6 |
| 20260505000026 | 25 | 138 | 9.7 | 12.9 | 0.00 | 0.00 | 0.00 | 71 | 1012.6 |
| 20260504235522 | 25 | 164 | 3.2 | 3.2 | 0.00 | 0.00 | 0.00 | 70 | 1012.4 |
| 20260504235019 | 25 | 158 | 3.2 | 4.8 | 0.00 | 0.00 | 0.00 | 70 | 1012.5 |
| 20260504234516 | 25 | 168 | 6.4 | 11.3 | 0.00 | 0.00 | 0.00 | 69 | 1012.6 |
| 20260504234013 | 26 | 128 | 1.6 | 3.2 | 0.00 | 0.00 | 0.00 | 68 | 1012.6 |
| 20260504233508 | 26 | 149 | 3.2 | 3.2 | 0.00 | 0.00 | 0.00 | 68 | 1012.6 |
| 20260504233006 | 26 | 149 | 1.6 | 1.6 | 0.00 | 0.00 | 0.00 | 68 | 1012.7 |
| 20260504232502 | 26 | 162 | 4.8 | 8.0 | 0.00 | 0.00 | 0.00 | 67 | 1012.8 |
| 20260504232000 | 26 | 153 | 6.4 | 9.7 | 0.00 | 0.00 | 0.00 | 68 | 1012.8 |
| 20260504231456 | 26 | 132 | 6.4 | 8.0 | 0.00 | 0.00 | 0.00 | 66 | 1012.9 |
| 20260504230953 | 26 | 161 | 3.2 | 4.8 | 0.00 | 0.00 | 0.00 | 68 | 1013.1 |
| 20260504230449 | 25 | 146 | 4.8 | 8.0 | 0.00 | 0.00 | 0.00 | 71 | 1012.9 |
| 20260504225948 | 25 | 163 | 6.4 | 9.7 | 0.00 | 0.00 | 0.00 | 71 | 1013.1 |
| 20260504225444 | 25 | 173 | 3.2 | 3.2 | 0.00 | 0.00 | 0.00 | 70 | 1013.1 |
| 20260504224942 | 25 | 183 | 3.2 | 4.8 | 0.00 | 0.00 | 0.00 | 70 | 1013.1 |
| 20260504224438 | 26 | 154 | 3.2 | 3.2 | 0.00 | 0.00 | 0.00 | 69 | 1013.1 |
| 20260504223936 | 26 | 157 | 3.2 | 4.8 | 0.00 | 0.00 | 0.00 | 69 | 1013.2 |
| 20260504223431 | 25 | 136 | 4.8 | 4.8 | 0.00 | 0.00 | 0.00 | 69 | 1013.4 |
| 20260504222927 | 25 | 135 | 4.8 | 4.8 | 0.00 | 0.00 | 0.00 | 70 | 1013.4 |
| 20260504222425 | 25 | 161 | 4.8 | 8.0 | 0.00 | 0.00 | 0.00 | 70 | 1013.6 |
| 20260504221922 | 25 | 149 | 4.8 | 4.8 | 0.00 | 0.00 | 0.00 | 70 | 1013.6 |
| 20260504221419 | 25 | 169 | 3.2 | 4.8 | 0.00 | 0.00 | 0.00 | 70 | 1013.5 |
| 20260504220916 | 25 | 165 | 4.8 | 4.8 | 0.00 | 0.00 | 0.00 | 70 | 1013.8 |
| 20260504220413 | 25 | 130 | 4.8 | 4.8 | 0.00 | 0.00 | 0.00 | 70 | 1013.6 |
| 20260504215910 | 25 | 128 | 4.8 | 8.0 | 0.00 | 0.00 | 0.00 | 69 | 1013.7 |
| 20260504215406 | 26 | 151 | 3.2 | 4.8 | 0.00 | 0.00 | 0.00 | 68 | 1013.6 |
| 20260504214902 | 25 | 134 | 4.8 | 4.8 | 0.00 | 0.00 | 0.00 | 68 | 1013.7 |
| 20260504214359 | 25 | 140 | 3.2 | 4.8 | 0.00 | 0.00 | 0.00 | 68 | 1013.8 |
| 20260504213856 | 25 | 129 | 6.4 | 9.7 | 0.00 | 0.00 | 0.00 | 68 | 1014.0 |
| 20260504213352 | 25 | 212 | 4.8 | 4.8 | 0.00 | 0.00 | 0.00 | 68 | 1014.0 |
| 20260504212849 | 25 | 150 | 1.6 | 1.6 | 0.00 | 0.00 | 0.00 | 68 | 1013.9 |
| 20260504212345 | 25 | 151 | 1.6 | 3.2 | 0.00 | 0.00 | 0.00 | 68 | 1014.0 |
| 20260504211844 | 26 | 153 | 8.0 | 9.7 | 0.00 | 0.00 | 0.00 | 67 | 1013.9 |
| 20260504211339 | 26 | 131 | 4.8 | 4.8 | 0.00 | 0.00 | 0.00 | 67 | 1014.2 |
| 20260504210837 | 26 | 164 | 4.8 | 4.8 | 0.00 | 0.00 | 0.00 | 65 | 1014.3 |
| 20260504210334 | 27 | 138 | 1.6 | 3.2 | 0.00 | 0.00 | 0.00 | 65 | 1014.3 |
| 20260504205831 | 27 | 160 | 6.4 | 9.7 | 0.00 | 0.00 | 0.00 | 64 | 1014.3 |
| 20260504205329 | 27 | 214 | 3.2 | 8.0 | 0.00 | 0.00 | 0.00 | 64 | 1014.3 |
| 20260504204827 | 27 | 163 | 6.4 | 9.7 | 0.00 | 0.00 | 0.00 | 65 | 1014.4 |
| 20260504204325 | 27 | 160 | 3.2 | 8.0 | 0.00 | 0.00 | 0.00 | 65 | 1014.3 |
| 20260504203824 | 27 | 145 | 4.8 | 4.8 | 0.00 | 0.00 | 0.00 | 64 | 1014.4 |
| 20260504203320 | 27 | 168 | 6.4 | 9.7 | 0.00 | 0.00 | 0.00 | 62 | 1014.6 |
| 20260504202816 | 27 | 129 | 3.2 | 3.2 | 0.00 | 0.00 | 0.00 | 63 | 1014.6 |
| 20260504202314 | 28 | 127 | 3.2 | 8.0 | 0.00 | 0.00 | 0.00 | 64 | 1014.6 |
| 20260504201810 | 27 | 140 | 9.7 | 12.9 | 0.00 | 0.00 | 0.00 | 64 | 1014.8 |
| 20260504201308 | 27 | 190 | 8.0 | 11.3 | 0.00 | 0.00 | 0.00 | 62 | 1014.7 |
| 20260504200805 | 27 | 165 | 3.2 | 4.8 | 0.00 | 0.00 | 0.00 | 63 | 1014.7 |
| 20260504200301 | 27 | 136 | 3.2 | 4.8 | 0.00 | 0.00 | 0.00 | 63 | 1014.8 |
| 20260504195757 | 28 | 148 | 4.8 | 9.7 | 0.00 | 0.00 | 0.00 | 61 | 1015.0 |
| 20260504195253 | 27 | 131 | 4.8 | 4.8 | 0.00 | 0.00 | 0.00 | 61 | 1014.8 |
| 20260504194750 | 27 | 123 | 6.4 | 8.0 | 0.00 | 0.00 | 0.00 | 63 | 1015.0 |
| 20260504194246 | 28 | 153 | 3.2 | 9.7 | 0.00 | 0.00 | 0.00 | 61 | 1015.2 |
| 20260504193743 | 28 | 148 | 4.8 | 8.0 | 0.00 | 0.00 | 0.00 | 60 | 1015.3 |
| 20260504193241 | 28 | 154 | 4.8 | 9.7 | 0.00 | 0.00 | 0.00 | 62 | 1015.3 |
| 20260504192739 | 28 | 183 | 3.2 | 4.8 | 0.00 | 0.00 | 0.00 | 60 | 1015.3 |
| 20260504192237 | 28 | 164 | 1.6 | 4.8 | 0.00 | 0.00 | 0.00 | 63 | 1015.3 |
| 20260504191735 | 27 | 189 | 4.8 | 9.7 | 0.00 | 0.00 | 0.00 | 60 | 1015.5 |
| 20260504191232 | 27 | 166 | 4.8 | 8.0 | 0.00 | 0.00 | 0.00 | 61 | 1015.3 |
| 20260504190727 | 27 | 178 | 8.0 | 9.7 | 0.00 | 0.00 | 0.00 | 64 | 1015.3 |
| 20260504190224 | 27 | 119 | 6.4 | 8.0 | 0.00 | 0.00 | 0.00 | 59 | 1015.6 |
| 20260504185720 | 27 | 148 | 4.8 | 4.8 | 0.00 | 0.00 | 0.00 | 63 | 1015.5 |
| 20260504185217 | 27 | 177 | 3.2 | 4.8 | 0.00 | 0.00 | 0.00 | 62 | 1015.4 |
| 20260504184713 | 27 | 178 | 6.4 | 14.5 | 0.00 | 0.00 | 0.00 | 61 | 1015.5 |
| 20260504184209 | 27 | 171 | 6.4 | 9.7 | 0.00 | 0.00 | 0.00 | 61 | 1015.6 |
| 20260504183705 | 27 | 207 | 6.4 | 9.7 | 0.00 | 0.00 | 0.00 | 62 | 1015.6 |
| 20260504183202 | 27 | 150 | 4.8 | 8.0 | 0.00 | 0.00 | 0.00 | 60 | 1015.7 |
| 20260504182700 | 27 | 148 | 3.2 | 4.8 | 0.00 | 0.00 | 0.00 | 63 | 1015.7 |
| 20260504182157 | 27 | 161 | 9.7 | 11.3 | 0.00 | 0.00 | 0.00 | 63 | 1015.8 |
| 20260504181655 | 27 | 146 | 8.0 | 9.7 | 0.00 | 0.00 | 0.00 | 61 | 1015.7 |
| 20260504181152 | 27 | 160 | 6.4 | 8.0 | 0.00 | 0.00 | 0.00 | 62 | 1016.0 |
| 20260504180651 | 27 | 187 | 8.0 | 11.3 | 0.00 | 0.00 | 0.00 | 61 | 1015.9 |
| 20260504180149 | 27 | 164 | 8.0 | 9.7 | 0.00 | 0.00 | 0.00 | 61 | 1016.0 |
| 20260504175646 | 28 | 160 | 6.4 | 9.7 | 0.00 | 0.00 | 0.00 | 60 | 1016.1 |
| 20260504175143 | 28 | 199 | 4.8 | 4.8 | 0.00 | 0.00 | 0.00 | 57 | 1016.2 |
| 20260504174641 | 27 | 158 | 4.8 | 8.0 | 0.00 | 0.00 | 0.00 | 61 | 1016.2 |
| 20260504174137 | 27 | 154 | 4.8 | 8.0 | 0.00 | 0.00 | 0.00 | 59 | 1016.4 |
| 20260504173635 | 27 | 174 | 3.2 | 4.8 | 0.00 | 0.00 | 0.00 | 59 | 1016.4 |
| 20260504173132 | 27 | 185 | 8.0 | 14.5 | 0.00 | 0.00 | 0.00 | 58 | 1016.6 |
| 20260504172628 | 27 | 164 | 8.0 | 9.7 | 0.00 | 0.00 | 0.00 | 59 | 1016.5 |
| 20260504172125 | 27 | 156 | 6.4 | 12.9 | 0.00 | 0.00 | 0.00 | 60 | 1016.5 |
| 20260504171621 | 27 | 161 | 1.6 | 3.2 | 0.00 | 0.00 | 0.00 | 59 | 1016.7 |
| 20260504171119 | 28 | 138 | 9.7 | 11.3 | 0.00 | 0.00 | 0.00 | 59 | 1016.7 |
| 20260504170615 | 28 | 119 | 8.0 | 11.3 | 0.00 | 0.00 | 0.00 | 58 | 1016.8 |
| 20260504170113 | 28 | 145 | 8.0 | 11.3 | 0.00 | 0.00 | 0.00 | 59 | 1016.8 |